FW6327 Weather Reports


Display with metric or nautical units.
time (UTC)temp
F
wind
direction
speed
MPH
gust
MPH
rain 1hr
in
rain 24hr
in
rain mn
in
humidity
%
barometer
mb
20260831134541 64 63 6.0 15.0 0.00 0.31 0.04 79 1008.6
20260831133040 64 69 7.0 13.0 0.00 0.31 0.04 82 1008.3
20260831131542 63 28 8.0 17.0 0.00 0.31 0.04 82 1008.2
20260831130037 64 88 4.0 10.0 0.00 0.31 0.04 85 1008.1
20260831124531 62 78 10.0 18.0 0.00 0.31 0.04 88 1007.9
20260831123023 61 65 2.0 10.0 0.00 0.31 0.04 94 1007.8
20260831121520 61 76 3.0 4.0 0.00 0.31 0.04 95 1007.7
20260831120015 60 53 0.0 4.0 0.01 0.31 0.04 95 1007.6
20260831114512 59 240 0.0 2.0 0.02 0.31 0.04 95 1007.6
20260831113010 58 240 0.0 2.0 0.02 0.31 0.04 95 1007.5
20260831111514 57 240 0.0 4.0 0.02 0.31 0.04 95 1007.5
20260831110006 57 355 1.0 2.0 0.01 0.30 0.03 95 1007.5
20260831104505 57 331 2.0 3.0 0.00 0.28 0.02 95 1007.3
20260831103002 57 329 0.0 1.0 0.00 0.28 0.02 95 1007.3
20260831101603 57 329 0.0 2.0 0.00 0.28 0.02 95 1007.1
20260831100057 57 44 1.0 3.0 0.00 0.28 0.02 95 1007.2
20260831094559 56 44 0.0 5.0 0.00 0.28 0.02 95 1007.0
20260831093154 56 58 3.0 4.0 0.00 0.28 0.02 95 1006.7
20260831091551 56 161 0.0 0.0 0.00 0.28 0.02 94 1006.9
20260831090056 56 161 0.0 0.0 0.00 0.28 0.02 94 1006.3
20260831084547 56 165 0.0 0.0 0.00 0.28 0.02 95 1006.5
20260831083045 56 165 0.0 0.0 0.00 0.28 0.02 94 1006.6
20260831081542 56 77 0.0 0.0 0.00 0.28 0.02 94 1006.5
20260831080040 56 76 0.0 0.0 0.01 0.28 0.02 94 1006.7
20260831074536 56 76 0.0 0.0 0.01 0.28 0.02 94 1006.8
20260831073034 56 76 0.0 1.0 0.01 0.28 0.02 94 1006.7
20260831071540 56 76 0.0 2.0 0.01 0.28 0.02 94 1007.2
20260831070030 56 76 1.0 3.0 0.00 0.28 0.02 94 1007.3
20260831064525 57 76 0.0 1.0 0.00 0.28 0.02 94 1007.4
20260831063023 57 76 0.0 0.0 0.00 0.28 0.02 94 1007.3
20260831061518 57 76 1.0 2.0 0.00 0.28 0.02 94 1007.5
20260831060015 57 77 0.0 1.0 0.01 0.28 0.02 94 1007.8
20260831054513 57 77 0.0 1.0 0.01 0.28 0.02 94 1007.8
20260831053023 57 77 0.0 2.0 0.01 0.28 0.02 94 1007.8
20260831051509 57 76 1.0 4.0 0.02 0.28 0.02 94 1007.8
20260831050019 57 190 0.0 3.0 0.01 0.28 0.01 94 1007.8
20260831044504 57 189 0.0 2.0 0.01 0.28 0.01 94 1007.6
20260831043100 57 189 0.0 1.0 0.01 0.28 0.01 94 1007.9
20260831041600 57 189 0.0 1.0 0.00 0.27 0.00 93 1008.1
20260831040055 58 189 0.0 1.0 0.00 0.27 0.00 93 1008.1
20260831034554 58 189 0.0 1.0 0.01 0.27 0.00 93 1008.1
20260831033049 58 189 0.0 2.0 0.02 0.27 0.00 93 1008.3
20260831031547 58 189 0.0 2.0 0.13 0.27 0.00 93 1008.5
20260831030043 59 185 0.0 2.0 0.18 0.27 0.00 93 1008.6
20260831024539 59 171 1.0 3.0 0.17 0.26 0.26 93 1008.8
20260831023037 59 46 1.0 10.0 0.17 0.25 0.25 94 1009.3
20260831021535 58 334 0.0 2.0 0.06 0.14 0.14 94 1009.3
20260831020033 58 334 0.0 2.0 0.00 0.09 0.09 93 1009.0
20260831014531 59 334 0.0 0.0 0.00 0.09 0.09 93 1009.2
20260831013028 59 334 0.0 1.0 0.00 0.09 0.09 93 1009.3
20260831011534 59 334 1.0 2.0 0.00 0.09 0.09 93 1009.4
20260831010021 59 334 0.0 0.0 0.00 0.09 0.09 93 1009.7
20260831004518 59 334 0.0 1.0 0.00 0.09 0.09 92 1009.8
20260831003023 59 334 0.0 1.0 0.00 0.09 0.09 92 1009.7
20260831001516 59 334 0.0 1.0 0.00 0.09 0.09 92 1009.8
20260831000013 59 334 0.0 2.0 0.00 0.09 0.09 92 1009.8
20260830234511 60 334 0.0 1.0 0.00 0.09 0.09 91 1010.1
20260830233009 60 335 1.0 3.0 0.00 0.09 0.09 91 1009.9
20260830231508 61 273 0.0 2.0 0.00 0.09 0.09 91 1009.8
20260830230006 61 273 0.0 1.0 0.00 0.09 0.09 91 1009.8
20260830224505 61 273 0.0 0.0 0.02 0.09 0.09 91 1009.8
20260830223002 62 273 0.0 2.0 0.04 0.09 0.09 90 1009.9
20260830221501 62 273 0.0 2.0 0.08 0.09 0.09 90 1010.0
20260830214617 62 273 1.0 4.0 0.07 0.07 0.07 88 1010.2
20260830213055 64 243 0.0 4.0 0.05 0.05 0.05 86 1010.3
20260830211554 65 188 0.0 2.0 0.01 0.01 0.01 83 1010.2
20260830210100 66 188 0.0 2.0 0.00 0.00 0.00 83 1009.9
20260830204559 67 188 0.0 2.0 0.00 0.00 0.00 81 1009.8
20260830203049 67 182 2.0 5.0 0.00 0.00 0.00 77 1009.9
20260830201545 67 171 0.0 3.0 0.00 0.00 0.00 78 1010.2
20260830200046 67 206 0.0 4.0 0.00 0.00 0.00 78 1010.2
20260830194539 67 225 3.0 6.0 0.00 0.00 0.00 75 1010.3
20260830193038 67 232 2.0 7.0 0.00 0.00 0.00 75 1010.4
20260830191536 67 198 4.0 7.0 0.00 0.00 0.00 73 1010.4
20260830190043 68 213 4.0 9.0 0.00 0.00 0.00 72 1010.4
20260830184531 68 213 3.0 8.0 0.00 0.00 0.00 71 1010.4
20260830183028 68 190 4.0 10.0 0.00 0.00 0.00 70 1010.6
20260830181527 69 206 5.0 12.0 0.00 0.00 0.00 68 1010.8
20260830180027 70 188 7.0 12.0 0.00 0.00 0.00 66 1010.8
20260830174521 70 163 7.0 14.0 0.00 0.00 0.00 64 1010.9
20260830173020 72 206 9.0 16.0 0.00 0.00 0.00 60 1011.1
20260830171515 73 199 9.0 25.0 0.00 0.00 0.00 59 1011.0
20260830170010 72 186 7.0 18.0 0.00 0.00 0.00 59 1011.1
20260830164508 72 153 7.0 24.0 0.00 0.00 0.00 59 1011.3
20260830163004 72 171 10.0 24.0 0.00 0.00 0.00 61 1011.5
20260830161500 72 165 11.0 18.0 0.00 0.00 0.00 62 1012.0
20260830160057 71 186 10.0 25.0 0.00 0.00 0.00 62 1012.0
20260830154554 72 180 8.0 19.0 0.00 0.01 0.00 63 1012.1
20260830153050 71 189 7.0 20.0 0.00 0.01 0.00 64 1012.4
20260830151549 71 205 10.0 19.0 0.00 0.01 0.00 63 1012.7
20260830150042 71 134 10.0 19.0 0.00 0.01 0.00 64 1013.0
20260830144538 71 186 8.0 18.0 0.00 0.05 0.00 68 1013.0
20260830143038 70 187 5.0 18.0 0.00 0.05 0.00 73 1013.2
20260830141530 69 180 6.0 13.0 0.00 0.05 0.00 75 1013.3
20260830140025 68 149 4.0 10.0 0.00 0.05 0.00 79 1013.6